GVY12E LDDU-LIPZ

Flight info

Callsign GVY12E
Flight time 1h 7m
Altitude 34000
Route AMUG1W AMUGO DCT RILIM DCT NUTRO DCT LAPVO DCT MASEG DCT ANC DCT LANLI DCT AMLON DCT BELOV L612 ARDAM Z456 LOBSI DCT OTGIG OTGI2E
Aircraft A321/M-SDE3FGHIRWY/LB1

Departure

Time 2025-10-26 11:50
Airport Dubrovnik Ruđer Bošković Airport (LDDU)

Arrival

Time 2025-10-26 12:58
Airport Venice Marco Polo Airport (LIPZ)
Time Latitude Longitude Altitude Speed Heading
2025-10-26 11:24 42.56092 18.26305 534 ft 0 kts 208°
2025-10-26 11:41 42.56115 18.26322 534 ft 3 kts 208°
2025-10-26 11:41 42.56134 18.26354 534 ft 3 kts 289°
2025-10-26 11:41 42.56130 18.26369 534 ft 2 kts 298°
2025-10-26 11:42 42.56120 18.26393 534 ft 0 kts 298°
2025-10-26 11:44 42.56122 18.26388 534 ft 4 kts 298°
2025-10-26 11:45 42.56206 18.26175 534 ft 16 kts 298°
2025-10-26 11:45 42.56255 18.26052 534 ft 14 kts 298°
2025-10-26 11:46 42.56418 18.25644 534 ft 20 kts 298°
2025-10-26 11:46 42.56541 18.25336 534 ft 17 kts 298°
2025-10-26 11:47 42.56651 18.25056 534 ft 19 kts 297°
2025-10-26 11:47 42.56762 18.24777 534 ft 10 kts 298°
2025-10-26 11:48 42.56868 18.24678 533 ft 15 kts
2025-10-26 11:48 42.56903 18.24893 533 ft 17 kts 117°
2025-10-26 11:49 42.56391 18.26184 534 ft 134 kts 118°
2025-10-26 11:49 42.54746 18.30378 1693 ft 175 kts 119°
2025-10-26 11:50 42.52196 18.33746 2598 ft 197 kts 192°
2025-10-26 11:51 42.49928 18.31559 3082 ft 210 kts 211°
2025-10-26 11:51 42.47061 18.30456 3927 ft 218 kts 196°
2025-10-26 11:52 42.44115 18.29494 5121 ft 219 kts 197°
2025-10-26 11:52 42.41148 18.28499 6254 ft 220 kts 201°
2025-10-26 11:52 42.39870 18.27453 6751 ft 215 kts 231°
2025-10-26 11:53 42.39360 18.23547 7363 ft 241 kts 285°
2025-10-26 11:53 42.40446 18.18990 8212 ft 264 kts 285°
2025-10-26 11:54 42.42143 18.11817 10300 ft 271 kts 284°
2025-10-26 11:55 42.43356 18.06573 10594 ft 313 kts 285°
2025-10-26 11:55 42.44709 18.00716 11273 ft 336 kts 285°
2025-10-26 11:55 42.45409 17.97695 11943 ft 337 kts 285°
2025-10-26 11:56 42.47514 17.88574 13979 ft 339 kts 285°
2025-10-26 11:56 42.48218 17.85518 14573 ft 340 kts 285°
2025-10-26 11:57 42.49626 17.79388 15751 ft 341 kts 285°
2025-10-26 11:57 42.51028 17.73276 16920 ft 343 kts 284°
2025-10-26 11:58 42.53146 17.63973 18492 ft 346 kts 284°
2025-10-26 11:59 42.54525 17.57688 19372 ft 348 kts 280°
2025-10-26 11:59 42.55508 17.51227 20222 ft 352 kts 279°
2025-10-26 12:00 42.56496 17.44738 21044 ft 356 kts 279°
2025-10-26 12:00 42.57491 17.38134 21901 ft 359 kts 279°
2025-10-26 12:00 42.57991 17.34802 22304 ft 361 kts 279°
2025-10-26 12:01 42.58997 17.28081 23122 ft 365 kts 279°
2025-10-26 12:01 42.60008 17.21288 23814 ft 369 kts 279°
2025-10-26 12:02 42.61534 17.11045 24803 ft 373 kts 279°
2025-10-26 12:03 42.62563 17.04114 25454 ft 376 kts 279°
2025-10-26 12:04 42.66176 16.79552 27571 ft 385 kts 280°
2025-10-26 12:07 42.72572 16.48007 30618 ft 379 kts 281°
2025-10-26 12:08 42.77268 16.24083 32950 ft 370 kts 281°
2025-10-26 12:11 42.83077 15.94133 33774 ft 359 kts 280°
2025-10-26 12:12 42.87492 15.71090 33781 ft 359 kts 280°
2025-10-26 12:15 42.93047 15.41616 33783 ft 357 kts 279°
2025-10-26 12:16 42.97322 15.18667 33779 ft 356 kts 279°
2025-10-26 12:19 43.02734 14.89224 33774 ft 356 kts 278°
2025-10-26 12:20 43.06889 14.66294 33762 ft 356 kts 278°
2025-10-26 12:23 43.12157 14.36748 33781 ft 356 kts 278°
2025-10-26 12:24 43.16780 14.14022 33780 ft 368 kts 293°
2025-10-26 12:27 43.32168 13.89442 33754 ft 378 kts 300°
2025-10-26 12:28 43.44120 13.70435 33785 ft 372 kts 299°
2025-10-26 12:31 43.59631 13.46425 33780 ft 393 kts 311°
2025-10-26 12:32 43.76643 13.33073 33748 ft 403 kts 316°
2025-10-26 12:35 43.98584 13.15785 32873 ft 406 kts 317°
2025-10-26 12:37 44.15841 13.02097 31134 ft 411 kts 317°
2025-10-26 12:39 44.38392 12.84095 25570 ft 408 kts 318°
2025-10-26 12:39 44.43278 12.80186 24392 ft 402 kts 319°
2025-10-26 12:40 44.48089 12.76320 23258 ft 396 kts 319°
2025-10-26 12:40 44.50432 12.74340 22361 ft 390 kts 314°
2025-10-26 12:41 44.54473 12.69398 20726 ft 385 kts 310°
2025-10-26 12:41 44.58394 12.64498 19840 ft 370 kts 311°
2025-10-26 12:42 44.62156 12.59779 19003 ft 357 kts 311°
2025-10-26 12:42 44.67670 12.52812 17524 ft 349 kts 313°
2025-10-26 12:43 44.71261 12.48302 16495 ft 344 kts 313°
2025-10-26 12:43 44.74803 12.43834 15472 ft 340 kts 313°
2025-10-26 12:44 44.76548 12.41624 14974 ft 333 kts 313°
2025-10-26 12:44 44.79932 12.37350 13994 ft 323 kts 314°
2025-10-26 12:45 44.83257 12.33149 12990 ft 323 kts 314°
2025-10-26 12:45 44.86593 12.28912 12025 ft 320 kts 314°
2025-10-26 12:46 44.89837 12.24780 11293 ft 311 kts 314°
2025-10-26 12:46 44.94617 12.18676 9987 ft 307 kts 316°
2025-10-26 12:47 44.98420 12.16186 9166 ft 310 kts 342°
2025-10-26 12:47 45.00517 12.15448 8929 ft 301 kts 343°
2025-10-26 12:48 45.04279 12.14207 8508 ft 260 kts 343°
2025-10-26 12:48 45.07741 12.13048 7721 ft 254 kts 342°
2025-10-26 12:48 45.09453 12.12463 7293 ft 253 kts 342°
2025-10-26 12:49 45.12854 12.11295 6464 ft 249 kts 342°
2025-10-26 12:50 45.17843 12.09581 5196 ft 245 kts 342°
2025-10-26 12:50 45.22755 12.07902 4035 ft 238 kts 342°
2025-10-26 12:51 45.25883 12.06867 4029 ft 222 kts 348°
2025-10-26 12:51 45.27428 12.06914 4049 ft 226 kts
2025-10-26 12:52 45.30151 12.09147 4032 ft 227 kts 39°
2025-10-26 12:52 45.33570 12.13504 4023 ft 203 kts 40°
2025-10-26 12:53 45.34590 12.14805 3892 ft 196 kts 40°
2025-10-26 12:53 45.36626 12.17400 3410 ft 192 kts 40°
2025-10-26 12:54 45.38463 12.19747 2912 ft 169 kts 40°
2025-10-26 12:54 45.41018 12.23012 2247 ft 164 kts 40°
2025-10-26 12:55 45.41864 12.24093 2026 ft 163 kts 40°
2025-10-26 12:55 45.43545 12.26246 1593 ft 162 kts 41°
2025-10-26 12:56 45.45217 12.28388 1149 ft 162 kts 42°
2025-10-26 12:56 45.46889 12.30535 689 ft 162 kts 42°
2025-10-26 12:57 45.48543 12.32645 317 ft 160 kts 44°
2025-10-26 12:57 45.50175 12.34748 16 ft 144 kts 43°
2025-10-26 12:58 45.51011 12.35800 16 ft 29 kts 29°
2025-10-26 12:58 45.51238 12.35883 14 ft 0 kts 349°
2025-10-26 12:59 45.51261 12.35814 14 ft 16 kts 252°
2025-10-26 13:00 45.51033 12.35508 16 ft 23 kts 224°
2025-10-26 13:00 45.50910 12.35147 16 ft 18 kts 221°
2025-10-26 13:01 45.50729 12.34910 16 ft 17 kts 223°
2025-10-26 13:01 45.50605 12.34650 16 ft 16 kts 265°
2025-10-26 13:02 45.50622 12.34368 16 ft 4 kts 306°
2025-10-26 13:02 45.50669 12.34158 16 ft 9 kts 227°
2025-10-26 13:03 45.50654 12.34135 16 ft 0 kts 229°